Year,Month,Day,Hour,Minute,Value (Times are PST for temperature in C)
2011,04,21,00,00,1.10
2011,04,21,00,01,1.20
2011,04,21,00,02,1.20
2011,04,21,00,03,1.20
2011,04,21,00,04,1.20
2011,04,21,00,05,1.20
2011,04,21,00,06,1.30
2011,04,21,00,07,1.30
2011,04,21,00,08,1.30
2011,04,21,00,09,1.30
2011,04,21,00,10,1.30
2011,04,21,00,11,1.30
2011,04,21,00,12,1.30
2011,04,21,00,13,1.40
2011,04,21,00,14,1.50
2011,04,21,00,15,1.50
2011,04,21,00,16,1.60
2011,04,21,00,17,1.60
2011,04,21,00,18,1.70
2011,04,21,00,19,1.70
2011,04,21,00,20,1.70
2011,04,21,00,21,1.70
2011,04,21,00,22,1.70
2011,04,21,00,23,1.70
2011,04,21,00,24,1.70
2011,04,21,00,25,1.70
2011,04,21,00,26,1.70
2011,04,21,00,27,1.70
2011,04,21,00,28,1.70
2011,04,21,00,29,1.70
2011,04,21,00,30,1.70
2011,04,21,00,31,1.70
2011,04,21,00,32,1.70
2011,04,21,00,33,1.70
2011,04,21,00,34,1.80
2011,04,21,00,35,1.80
2011,04,21,00,36,1.80
2011,04,21,00,37,1.80
2011,04,21,00,38,1.80
2011,04,21,00,39,1.80
2011,04,21,00,40,1.80
2011,04,21,00,41,1.80
2011,04,21,00,42,1.80
2011,04,21,00,43,1.70
2011,04,21,00,44,1.70
2011,04,21,00,45,1.70
2011,04,21,00,46,1.70
2011,04,21,00,47,1.70
2011,04,21,00,48,1.70
2011,04,21,00,49,1.70
2011,04,21,00,50,1.70
2011,04,21,00,51,1.70
2011,04,21,00,52,1.60
2011,04,21,00,53,1.60
2011,04,21,00,54,1.60
2011,04,21,00,55,1.60
2011,04,21,00,56,1.60
2011,04,21,00,57,1.60
2011,04,21,00,58,1.60
2011,04,21,00,59,1.60
2011,04,21,01,00,1.60
2011,04,21,01,01,1.60
2011,04,21,01,02,1.60
2011,04,21,01,03,1.60
2011,04,21,01,04,1.60
2011,04,21,01,05,1.60
2011,04,21,01,06,1.60
2011,04,21,01,07,1.60
2011,04,21,01,08,1.60
2011,04,21,01,09,1.60
2011,04,21,01,10,1.60
2011,04,21,01,11,1.60
2011,04,21,01,12,1.60
2011,04,21,01,13,1.60
2011,04,21,01,14,1.70
2011,04,21,01,15,1.70
2011,04,21,01,16,1.70
2011,04,21,01,17,1.70
2011,04,21,01,18,1.80
2011,04,21,01,19,1.80
2011,04,21,01,20,1.80
2011,04,21,01,21,1.80
2011,04,21,01,22,1.80
2011,04,21,01,23,1.80
2011,04,21,01,24,1.80
2011,04,21,01,25,1.80
2011,04,21,01,26,1.80
2011,04,21,01,27,1.80
2011,04,21,01,28,1.80
2011,04,21,01,29,1.90
2011,04,21,01,30,1.90
2011,04,21,01,31,1.90
2011,04,21,01,32,1.90
2011,04,21,01,33,1.90
2011,04,21,01,34,1.90
2011,04,21,01,35,1.90
2011,04,21,01,36,1.90
2011,04,21,01,37,1.90
2011,04,21,01,38,1.90
2011,04,21,01,39,1.90
2011,04,21,01,40,1.90
2011,04,21,01,41,1.90
2011,04,21,01,42,1.90
2011,04,21,01,43,1.90
2011,04,21,01,44,1.90
2011,04,21,01,45,1.90
2011,04,21,01,46,1.90
2011,04,21,01,47,2.00
2011,04,21,01,48,2.00
2011,04,21,01,49,2.00
2011,04,21,01,50,2.00
2011,04,21,01,51,2.00
2011,04,21,01,52,2.10
2011,04,21,01,53,2.10
2011,04,21,01,54,2.10
2011,04,21,01,55,2.10
2011,04,21,01,56,2.10
2011,04,21,01,57,2.10
2011,04,21,01,58,2.10
2011,04,21,01,59,2.10
2011,04,21,02,00,2.20
2011,04,21,02,01,2.20
2011,04,21,02,02,2.20
2011,04,21,02,03,2.20
2011,04,21,02,04,2.20
2011,04,21,02,05,2.20
2011,04,21,02,06,2.30
2011,04,21,02,07,2.30
2011,04,21,02,08,2.30
2011,04,21,02,09,2.30
2011,04,21,02,10,2.30
2011,04,21,02,11,2.40
2011,04,21,02,12,2.40
2011,04,21,02,13,2.50
2011,04,21,02,14,2.50
2011,04,21,02,15,2.50
2011,04,21,02,16,2.60
2011,04,21,02,17,2.60
2011,04,21,02,18,2.70
2011,04,21,02,19,2.70
2011,04,21,02,20,2.70
2011,04,21,02,21,2.70
2011,04,21,02,22,2.70
2011,04,21,02,23,2.70
2011,04,21,02,24,2.80
2011,04,21,02,25,2.80
2011,04,21,02,26,2.80
2011,04,21,02,27,2.80
2011,04,21,02,28,2.80
2011,04,21,02,29,2.80
2011,04,21,02,30,2.90
2011,04,21,02,31,2.90
2011,04,21,02,32,2.90
2011,04,21,02,33,2.90
2011,04,21,02,34,2.90
2011,04,21,02,35,2.90
2011,04,21,02,36,2.90
2011,04,21,02,37,2.90
2011,04,21,02,38,2.90
2011,04,21,02,39,2.90
2011,04,21,02,40,2.90
2011,04,21,02,41,2.90
2011,04,21,02,42,3.00
2011,04,21,02,43,3.00
2011,04,21,02,44,3.00
2011,04,21,02,45,3.00
2011,04,21,02,46,3.00
2011,04,21,02,47,3.00
2011,04,21,02,48,3.00
2011,04,21,02,49,3.10
2011,04,21,02,50,3.10
2011,04,21,02,51,3.10
2011,04,21,02,52,3.10
2011,04,21,02,53,3.10
2011,04,21,02,54,3.10
2011,04,21,02,55,3.20
2011,04,21,02,56,3.20
2011,04,21,02,57,3.20
2011,04,21,02,58,3.20
2011,04,21,02,59,3.30
2011,04,21,03,00,3.30
2011,04,21,03,01,3.40
2011,04,21,03,02,3.40
2011,04,21,03,03,3.50
2011,04,21,03,04,3.50
2011,04,21,03,05,3.50
2011,04,21,03,06,3.60
2011,04,21,03,07,3.60
2011,04,21,03,08,3.60
2011,04,21,03,09,3.60
2011,04,21,03,10,3.60
2011,04,21,03,11,3.60
2011,04,21,03,12,3.70
2011,04,21,03,13,3.70
2011,04,21,03,14,3.70
2011,04,21,03,15,3.70
2011,04,21,03,16,3.70
2011,04,21,03,17,3.70
2011,04,21,03,18,3.70
2011,04,21,03,19,3.70
2011,04,21,03,20,3.70
2011,04,21,03,21,3.70
2011,04,21,03,22,3.70
2011,04,21,03,23,3.70
2011,04,21,03,24,3.70
2011,04,21,03,25,3.70
2011,04,21,03,26,3.70
2011,04,21,03,27,3.70
2011,04,21,03,28,3.60
2011,04,21,03,29,3.60
2011,04,21,03,30,3.60
2011,04,21,03,31,3.60
2011,04,21,03,32,3.60
2011,04,21,03,33,3.60
2011,04,21,03,34,3.60
2011,04,21,03,35,3.50
2011,04,21,03,36,3.50
2011,04,21,03,37,3.50
2011,04,21,03,38,3.50
2011,04,21,03,39,3.50
2011,04,21,03,40,3.40
2011,04,21,03,41,3.40
2011,04,21,03,42,3.40
2011,04,21,03,43,3.40
2011,04,21,03,44,3.40
2011,04,21,03,45,3.30
2011,04,21,03,46,3.30
2011,04,21,03,47,3.30
2011,04,21,03,48,3.30
2011,04,21,03,49,3.30
2011,04,21,03,50,3.30
2011,04,21,03,51,3.30
2011,04,21,03,52,3.30
2011,04,21,03,53,3.30
2011,04,21,03,54,3.40
2011,04,21,03,55,3.40
2011,04,21,03,56,3.40
2011,04,21,03,57,3.40
2011,04,21,03,58,3.40
2011,04,21,03,59,3.40
2011,04,21,04,00,3.40
2011,04,21,04,01,3.40
2011,04,21,04,02,3.50
2011,04,21,04,03,3.50
2011,04,21,04,04,3.50
2011,04,21,04,05,3.60
2011,04,21,04,06,3.60
2011,04,21,04,07,3.60
2011,04,21,04,08,3.60
2011,04,21,04,09,3.60
2011,04,21,04,10,3.70
2011,04,21,04,11,3.70
2011,04,21,04,12,3.70
2011,04,21,04,13,3.70
2011,04,21,04,14,3.70
2011,04,21,04,15,3.70
2011,04,21,04,16,3.70
2011,04,21,04,17,3.70
2011,04,21,04,18,3.70
2011,04,21,04,19,3.70
2011,04,21,04,20,3.80
2011,04,21,04,21,3.80
2011,04,21,04,22,3.80
2011,04,21,04,23,3.80
2011,04,21,04,24,3.80
2011,04,21,04,25,3.80
2011,04,21,04,26,3.80
2011,04,21,04,27,3.80
2011,04,21,04,28,3.80
2011,04,21,04,29,3.70
2011,04,21,04,30,3.70
2011,04,21,04,31,3.70
2011,04,21,04,32,3.70
2011,04,21,04,33,3.70
2011,04,21,04,34,3.70
2011,04,21,04,35,3.70
2011,04,21,04,36,3.70
2011,04,21,04,37,3.70
2011,04,21,04,38,3.70
2011,04,21,04,39,3.70
2011,04,21,04,40,3.70
2011,04,21,04,41,3.70
2011,04,21,04,42,3.70
2011,04,21,04,43,3.70
2011,04,21,04,44,3.70
2011,04,21,04,45,3.70
2011,04,21,04,46,3.70
2011,04,21,04,47,3.70
2011,04,21,04,48,3.70
2011,04,21,04,49,3.70
2011,04,21,04,50,3.70
2011,04,21,04,51,3.70
2011,04,21,04,52,3.70
2011,04,21,04,53,3.70
2011,04,21,04,54,3.60
2011,04,21,04,55,3.60
2011,04,21,04,56,3.60
2011,04,21,04,57,3.60
2011,04,21,04,58,3.60
2011,04,21,04,59,3.60
2011,04,21,05,00,3.60
2011,04,21,05,01,3.50
2011,04,21,05,02,3.50
2011,04,21,05,03,3.50
2011,04,21,05,04,3.50
2011,04,21,05,05,3.50
2011,04,21,05,06,3.50
2011,04,21,05,07,3.50
2011,04,21,05,08,3.50
2011,04,21,05,09,3.50
2011,04,21,05,10,3.50
2011,04,21,05,11,3.50
2011,04,21,05,12,3.50
2011,04,21,05,13,3.50
2011,04,21,05,14,3.50
2011,04,21,05,15,3.40
2011,04,21,05,16,3.40
2011,04,21,05,17,3.40
2011,04,21,05,18,3.40
2011,04,21,05,19,3.40
2011,04,21,05,20,3.40
2011,04,21,05,21,3.40
2011,04,21,05,22,3.40
2011,04,21,05,23,3.40
2011,04,21,05,24,3.40
2011,04,21,05,25,3.40
2011,04,21,05,26,3.40
2011,04,21,05,27,3.40
2011,04,21,05,28,3.40
2011,04,21,05,29,3.40
2011,04,21,05,30,3.40
2011,04,21,05,31,3.40
2011,04,21,05,32,3.40
2011,04,21,05,33,3.40
2011,04,21,05,34,3.40
2011,04,21,05,35,3.40
2011,04,21,05,36,3.40
2011,04,21,05,37,3.40
2011,04,21,05,38,3.30
2011,04,21,05,39,3.30
2011,04,21,05,40,3.30
2011,04,21,05,41,3.30
2011,04,21,05,42,3.30
2011,04,21,05,43,3.30
2011,04,21,05,44,3.30
2011,04,21,05,45,3.40
2011,04,21,05,46,3.40
2011,04,21,05,47,3.40
2011,04,21,05,48,3.50
2011,04,21,05,49,3.50
2011,04,21,05,50,3.50
2011,04,21,05,51,3.60
2011,04,21,05,52,3.60
2011,04,21,05,53,3.60
2011,04,21,05,54,3.70
2011,04,21,05,55,3.70
2011,04,21,05,56,3.70
2011,04,21,05,57,3.70
2011,04,21,05,58,3.80
2011,04,21,05,59,3.80
2011,04,21,06,00,3.80
2011,04,21,06,01,3.80
2011,04,21,06,02,3.90
2011,04,21,06,03,3.90
2011,04,21,06,04,3.90
2011,04,21,06,05,3.90
2011,04,21,06,06,3.90
2011,04,21,06,07,3.90
2011,04,21,06,08,3.90
2011,04,21,06,09,3.90
2011,04,21,06,10,3.90
2011,04,21,06,11,3.90
2011,04,21,06,12,3.90
2011,04,21,06,13,3.90
2011,04,21,06,14,4.00
2011,04,21,06,15,4.00
2011,04,21,06,16,4.00
2011,04,21,06,17,4.00
2011,04,21,06,18,4.00
2011,04,21,06,19,4.00
2011,04,21,06,20,4.00
2011,04,21,06,21,4.00
2011,04,21,06,22,4.00
2011,04,21,06,23,4.00
2011,04,21,06,24,4.00
2011,04,21,06,25,4.00
2011,04,21,06,26,4.00
2011,04,21,06,27,4.00
2011,04,21,06,28,4.00
2011,04,21,06,29,4.00
2011,04,21,06,30,4.00
2011,04,21,06,31,4.00
2011,04,21,06,32,4.00
2011,04,21,06,33,4.00
2011,04,21,06,34,4.00
2011,04,21,06,35,4.00
2011,04,21,06,36,4.00
2011,04,21,06,37,4.00
2011,04,21,06,38,4.00
2011,04,21,06,39,4.00
2011,04,21,06,40,3.90
2011,04,21,06,41,3.90
2011,04,21,06,42,4.00
2011,04,21,06,43,4.00
2011,04,21,06,44,4.00
2011,04,21,06,45,4.00
2011,04,21,06,46,4.00
2011,04,21,06,47,4.00
2011,04,21,06,48,4.00
2011,04,21,06,49,4.00
2011,04,21,06,50,4.10
2011,04,21,06,51,4.10
2011,04,21,06,52,4.10
2011,04,21,06,53,4.10
2011,04,21,06,54,4.10
2011,04,21,06,55,4.10
2011,04,21,06,56,4.10
2011,04,21,06,57,4.10
2011,04,21,06,58,4.20
2011,04,21,06,59,4.20
2011,04,21,07,00,4.20
2011,04,21,07,01,4.20
2011,04,21,07,02,4.20
2011,04,21,07,03,4.20
2011,04,21,07,04,4.20
2011,04,21,07,05,4.20
2011,04,21,07,06,4.20
2011,04,21,07,07,4.30
2011,04,21,07,08,4.30
2011,04,21,07,09,4.30
2011,04,21,07,10,4.30
2011,04,21,07,11,4.30
2011,04,21,07,12,4.30
2011,04,21,07,13,4.30
2011,04,21,07,14,4.30
2011,04,21,07,15,4.30
2011,04,21,07,16,4.30
2011,04,21,07,17,4.30
2011,04,21,07,18,4.40
2011,04,21,07,19,4.40
2011,04,21,07,20,4.40
2011,04,21,07,21,4.40
2011,04,21,07,22,4.40
2011,04,21,07,23,4.40
2011,04,21,07,24,4.40
2011,04,21,07,25,4.40
2011,04,21,07,26,4.40
2011,04,21,07,27,4.40
2011,04,21,07,28,4.40
2011,04,21,07,29,4.40
2011,04,21,07,30,4.40
2011,04,21,07,31,4.40
2011,04,21,07,32,4.50
2011,04,21,07,33,4.50
2011,04,21,07,34,4.50
2011,04,21,07,35,4.50
2011,04,21,07,36,4.50
2011,04,21,07,37,4.60
2011,04,21,07,38,4.60
2011,04,21,07,39,4.60
2011,04,21,07,40,4.60
2011,04,21,07,41,4.60
2011,04,21,07,42,4.60
2011,04,21,07,43,4.70
2011,04,21,07,44,4.70
2011,04,21,07,45,4.70
2011,04,21,07,46,4.70
2011,04,21,07,47,4.70
2011,04,21,07,48,4.70
2011,04,21,07,49,4.70
2011,04,21,07,50,4.70
2011,04,21,07,51,4.70
2011,04,21,07,52,4.70
2011,04,21,07,53,4.70
2011,04,21,07,54,4.70
2011,04,21,07,55,4.70
2011,04,21,07,56,4.70
2011,04,21,07,57,4.70
2011,04,21,07,58,4.70
2011,04,21,07,59,4.70
2011,04,21,08,00,4.70
2011,04,21,08,01,4.80
2011,04,21,08,02,4.80
2011,04,21,08,03,4.90
2011,04,21,08,04,4.90
2011,04,21,08,05,5.00
2011,04,21,08,06,5.10
2011,04,21,08,07,5.10
2011,04,21,08,08,5.20
2011,04,21,08,09,5.20
2011,04,21,08,10,5.30
2011,04,21,08,11,5.30
2011,04,21,08,12,5.40
2011,04,21,08,13,5.40
2011,04,21,08,14,5.40
2011,04,21,08,15,5.50
2011,04,21,08,16,5.50
2011,04,21,08,17,5.60
2011,04,21,08,18,5.60
2011,04,21,08,19,5.70
2011,04,21,08,20,5.70
2011,04,21,08,21,5.80
2011,04,21,08,22,5.80
2011,04,21,08,23,5.80
2011,04,21,08,24,5.80
2011,04,21,08,25,5.80
2011,04,21,08,26,5.90
2011,04,21,08,27,5.90
2011,04,21,08,28,5.90
2011,04,21,08,29,5.90
2011,04,21,08,30,6.00
2011,04,21,08,31,6.00
2011,04,21,08,32,6.10
2011,04,21,08,33,6.10
2011,04,21,08,34,6.10
2011,04,21,08,35,6.10
2011,04,21,08,36,6.10
2011,04,21,08,37,6.10
2011,04,21,08,38,6.20
2011,04,21,08,39,6.20
2011,04,21,08,40,6.20
2011,04,21,08,41,6.20
2011,04,21,08,42,6.20
2011,04,21,08,43,6.20
2011,04,21,08,44,6.20
2011,04,21,08,45,6.20
2011,04,21,08,46,6.30
2011,04,21,08,47,6.30
2011,04,21,08,48,6.40
2011,04,21,08,49,6.40
2011,04,21,08,50,6.40
2011,04,21,08,51,6.50
2011,04,21,08,52,6.50
2011,04,21,08,53,6.50
2011,04,21,08,54,6.40
2011,04,21,08,55,6.40
2011,04,21,08,56,6.40
2011,04,21,08,57,6.40
2011,04,21,08,58,6.40
2011,04,21,08,59,6.40
2011,04,21,09,00,6.40
2011,04,21,09,01,6.40
2011,04,21,09,02,6.40
2011,04,21,09,03,6.40
2011,04,21,09,04,6.50
2011,04,21,09,05,6.50
2011,04,21,09,06,6.60
2011,04,21,09,07,6.60
2011,04,21,09,08,6.50
2011,04,21,09,09,6.50
2011,04,21,09,10,6.60
2011,04,21,09,11,6.60
2011,04,21,09,12,6.60
2011,04,21,09,13,6.60
2011,04,21,09,14,6.70
2011,04,21,09,15,6.70
2011,04,21,09,16,6.80
2011,04,21,09,17,6.80
2011,04,21,09,18,6.90
2011,04,21,09,19,7.00
2011,04,21,09,20,7.00
2011,04,21,09,21,7.00
2011,04,21,09,22,7.00
2011,04,21,09,23,7.00
2011,04,21,09,24,7.00
2011,04,21,09,25,7.00
2011,04,21,09,26,7.00
2011,04,21,09,27,7.10
2011,04,21,09,28,7.10
2011,04,21,09,29,7.20
2011,04,21,09,30,7.10
2011,04,21,09,31,7.00
2011,04,21,09,32,6.90
2011,04,21,09,33,6.80
2011,04,21,09,34,6.80
2011,04,21,09,35,6.70
2011,04,21,09,36,6.70
2011,04,21,09,37,6.70
2011,04,21,09,38,6.70
2011,04,21,09,39,6.70
2011,04,21,09,40,6.70
2011,04,21,09,41,6.70
2011,04,21,09,42,6.80
2011,04,21,09,43,6.80
2011,04,21,09,44,6.90
2011,04,21,09,45,6.90
2011,04,21,09,46,6.90
2011,04,21,09,47,6.90
2011,04,21,09,48,6.90
2011,04,21,09,49,6.80
2011,04,21,09,50,6.80
2011,04,21,09,51,6.70
2011,04,21,09,52,6.70
2011,04,21,09,53,6.60
2011,04,21,09,54,6.70
2011,04,21,09,55,6.70
2011,04,21,09,56,6.80
2011,04,21,09,57,6.80
2011,04,21,09,58,6.80
2011,04,21,09,59,6.90
2011,04,21,10,00,7.00
2011,04,21,10,01,7.00
2011,04,21,10,02,7.10
2011,04,21,10,03,7.10
2011,04,21,10,04,7.10
2011,04,21,10,05,7.10
2011,04,21,10,06,7.20
2011,04,21,10,07,7.20
2011,04,21,10,08,7.40
2011,04,21,10,09,7.40
2011,04,21,10,10,7.40
2011,04,21,10,11,7.30
2011,04,21,10,12,7.20
2011,04,21,10,13,7.20
2011,04,21,10,14,7.20
2011,04,21,10,15,7.10
2011,04,21,10,16,7.10
2011,04,21,10,17,7.20
2011,04,21,10,18,7.20
2011,04,21,10,19,7.30
2011,04,21,10,20,7.30
2011,04,21,10,21,7.30
2011,04,21,10,22,7.30
2011,04,21,10,23,7.20
2011,04,21,10,24,7.20
2011,04,21,10,25,7.30
2011,04,21,10,26,7.20
2011,04,21,10,27,7.20
2011,04,21,10,28,7.20
2011,04,21,10,29,7.20
2011,04,21,10,30,7.20
2011,04,21,10,31,7.30
2011,04,21,10,32,7.40
2011,04,21,10,33,7.50
2011,04,21,10,34,7.60
2011,04,21,10,35,7.60
2011,04,21,10,36,7.60
2011,04,21,10,37,7.70
2011,04,21,10,38,7.70
2011,04,21,10,39,7.70
2011,04,21,10,40,7.60
2011,04,21,10,41,7.50
2011,04,21,10,42,7.50
2011,04,21,10,43,7.40
2011,04,21,10,44,7.40
2011,04,21,10,45,7.40
2011,04,21,10,46,7.40
2011,04,21,10,47,7.50
2011,04,21,10,48,7.50
2011,04,21,10,49,7.50
2011,04,21,10,50,7.50
2011,04,21,10,51,7.50
2011,04,21,10,52,7.60
2011,04,21,10,53,7.60
2011,04,21,10,54,7.60
2011,04,21,10,55,7.50
2011,04,21,10,56,7.40
2011,04,21,10,57,7.30
2011,04,21,10,58,7.20
2011,04,21,10,59,7.20
2011,04,21,11,00,7.20
2011,04,21,11,01,7.20
2011,04,21,11,02,7.20
2011,04,21,11,03,7.20
2011,04,21,11,04,7.20
2011,04,21,11,05,7.20
2011,04,21,11,06,7.30
2011,04,21,11,07,7.40
2011,04,21,11,08,7.40
2011,04,21,11,09,7.40
2011,04,21,11,10,7.50
2011,04,21,11,11,7.50
2011,04,21,11,12,7.50
2011,04,21,11,13,7.50
2011,04,21,11,14,7.60
2011,04,21,11,15,7.60
2011,04,21,11,16,7.50
2011,04,21,11,17,7.50
2011,04,21,11,18,7.50
2011,04,21,11,19,7.60
2011,04,21,11,20,7.60
2011,04,21,11,21,7.70
2011,04,21,11,22,7.70
2011,04,21,11,23,7.80
2011,04,21,11,24,7.90
2011,04,21,11,25,7.90
2011,04,21,11,26,8.00
2011,04,21,11,27,8.00
2011,04,21,11,28,8.10
2011,04,21,11,29,8.00
2011,04,21,11,30,8.00
2011,04,21,11,31,8.00
2011,04,21,11,32,8.00
2011,04,21,11,33,8.00
2011,04,21,11,34,8.00
2011,04,21,11,35,7.90
2011,04,21,11,36,7.80
2011,04,21,11,37,7.80
2011,04,21,11,38,7.90
2011,04,21,11,39,7.90
2011,04,21,11,40,8.00
2011,04,21,11,41,8.10
2011,04,21,11,42,8.00
2011,04,21,11,43,7.90
2011,04,21,11,44,7.80
2011,04,21,11,45,7.80
2011,04,21,11,46,7.70
2011,04,21,11,47,7.60
2011,04,21,11,48,7.50
2011,04,21,11,49,7.50
2011,04,21,11,50,7.50
2011,04,21,11,51,7.40
2011,04,21,11,52,7.40
2011,04,21,11,53,7.40
2011,04,21,11,54,7.40
2011,04,21,11,55,7.40
2011,04,21,11,56,7.40
2011,04,21,11,57,7.50
2011,04,21,11,58,7.60
2011,04,21,11,59,7.60
2011,04,21,12,00,7.60
2011,04,21,12,01,7.70
2011,04,21,12,02,7.80
2011,04,21,12,03,7.80
2011,04,21,12,04,7.80
2011,04,21,12,05,7.80
2011,04,21,12,06,7.90
2011,04,21,12,07,7.80
2011,04,21,12,08,7.80
2011,04,21,12,09,7.90
2011,04,21,12,10,8.00
2011,04,21,12,11,8.10
2011,04,21,12,12,8.10
2011,04,21,12,13,8.10
2011,04,21,12,14,8.20
2011,04,21,12,15,8.20
2011,04,21,12,16,8.30
2011,04,21,12,17,8.30
2011,04,21,12,18,8.40
2011,04,21,12,19,8.30
2011,04,21,12,20,8.30
2011,04,21,12,21,8.40
2011,04,21,12,22,8.40
2011,04,21,12,23,8.60
2011,04,21,12,24,8.70
2011,04,21,12,25,8.80
2011,04,21,12,26,8.70
2011,04,21,12,27,8.70
2011,04,21,12,28,8.70
2011,04,21,12,29,8.80
2011,04,21,12,30,8.80
2011,04,21,12,31,8.80
2011,04,21,12,32,8.80
2011,04,21,12,33,8.70
2011,04,21,12,34,8.70
2011,04,21,12,35,8.60
2011,04,21,12,36,8.40
2011,04,21,12,37,8.30
2011,04,21,12,38,8.20
2011,04,21,12,39,8.10
2011,04,21,12,40,8.00
2011,04,21,12,41,8.00
2011,04,21,12,42,7.90
2011,04,21,12,43,7.80
2011,04,21,12,44,7.90
2011,04,21,12,45,7.90
2011,04,21,12,46,7.90
2011,04,21,12,47,8.00
2011,04,21,12,48,8.00
2011,04,21,12,49,8.00
2011,04,21,12,50,8.00
2011,04,21,12,51,8.00
2011,04,21,12,52,8.10
2011,04,21,12,53,8.10
2011,04,21,12,54,8.20
2011,04,21,12,55,8.20
2011,04,21,12,56,8.20
2011,04,21,12,57,8.30
2011,04,21,12,58,8.20
2011,04,21,12,59,8.20
2011,04,21,13,00,8.10
2011,04,21,13,01,8.10
2011,04,21,13,02,8.10
2011,04,21,13,03,8.20
2011,04,21,13,04,8.20
2011,04,21,13,05,8.30
2011,04,21,13,06,8.20
2011,04,21,13,07,8.20
2011,04,21,13,08,8.20
2011,04,21,13,09,8.20
2011,04,21,13,10,8.20
2011,04,21,13,11,8.30
2011,04,21,13,12,8.30
2011,04,21,13,13,8.40
2011,04,21,13,14,8.50
2011,04,21,13,15,8.50
2011,04,21,13,16,8.50
2011,04,21,13,17,8.50
2011,04,21,13,18,8.40
2011,04,21,13,19,8.30
2011,04,21,13,20,8.30
2011,04,21,13,21,8.40
2011,04,21,13,22,8.50
2011,04,21,13,23,8.50
2011,04,21,13,24,8.60
2011,04,21,13,25,8.70
2011,04,21,13,26,8.70
2011,04,21,13,27,8.70
2011,04,21,13,28,8.70
2011,04,21,13,29,8.80
2011,04,21,13,30,8.90
2011,04,21,13,31,8.90
2011,04,21,13,32,8.90
2011,04,21,13,33,9.00
2011,04,21,13,34,9.10
2011,04,21,13,35,9.00
2011,04,21,13,36,8.90
2011,04,21,13,37,8.80
2011,04,21,13,38,8.80
2011,04,21,13,39,8.70
2011,04,21,13,40,8.60
2011,04,21,13,41,8.60
2011,04,21,13,42,8.60
2011,04,21,13,43,8.70
2011,04,21,13,44,8.70
2011,04,21,13,45,8.60
2011,04,21,13,46,8.60
2011,04,21,13,47,8.60
2011,04,21,13,48,8.70
2011,04,21,13,49,8.70
2011,04,21,13,50,8.70
2011,04,21,13,51,8.70
2011,04,21,13,52,8.80
2011,04,21,13,53,8.80
2011,04,21,13,54,8.80
2011,04,21,13,55,8.70
2011,04,21,13,56,8.70
2011,04,21,13,57,8.70
2011,04,21,13,58,8.70
2011,04,21,13,59,8.60
2011,04,21,14,00,8.60
2011,04,21,14,01,8.60
2011,04,21,14,02,8.70
2011,04,21,14,03,8.80
2011,04,21,14,04,8.80
2011,04,21,14,05,8.80
2011,04,21,14,06,8.80
2011,04,21,14,07,8.80
2011,04,21,14,08,8.80
2011,04,21,14,09,8.80
2011,04,21,14,10,8.80
2011,04,21,14,11,8.90
2011,04,21,14,12,8.80
2011,04,21,14,13,8.90
2011,04,21,14,14,8.90
2011,04,21,14,15,8.90
2011,04,21,14,16,8.90
2011,04,21,14,17,8.90
2011,04,21,14,18,9.00
2011,04,21,14,19,9.10
2011,04,21,14,20,9.10
2011,04,21,14,21,9.20
2011,04,21,14,22,9.30
2011,04,21,14,23,9.30
2011,04,21,14,24,9.40
2011,04,21,14,25,9.50
2011,04,21,14,26,9.60
2011,04,21,14,27,9.50
2011,04,21,14,28,9.40
2011,04,21,14,29,9.40
2011,04,21,14,30,9.40
2011,04,21,14,31,9.40
2011,04,21,14,32,9.30
2011,04,21,14,33,9.20
2011,04,21,14,34,9.20
2011,04,21,14,35,9.30
2011,04,21,14,36,9.40
2011,04,21,14,37,9.50
2011,04,21,14,38,9.60
2011,04,21,14,39,9.70
2011,04,21,14,40,9.70
2011,04,21,14,41,9.60
2011,04,21,14,42,9.50
2011,04,21,14,43,9.50
2011,04,21,14,44,9.40
2011,04,21,14,45,9.40
2011,04,21,14,46,9.40
2011,04,21,14,47,9.40
2011,04,21,14,48,9.50
2011,04,21,14,49,9.50
2011,04,21,14,50,9.50
2011,04,21,14,51,9.50
2011,04,21,14,52,9.50
2011,04,21,14,53,9.50
2011,04,21,14,54,9.60
2011,04,21,14,55,9.60
2011,04,21,14,56,9.60
2011,04,21,14,57,9.50
2011,04,21,14,58,9.50
2011,04,21,14,59,9.50
2011,04,21,15,00,9.50
2011,04,21,15,01,9.60
2011,04,21,15,02,9.60
2011,04,21,15,03,9.60
2011,04,21,15,04,9.60
2011,04,21,15,05,9.60
2011,04,21,15,06,9.50
2011,04,21,15,07,9.50
2011,04,21,15,08,9.50
2011,04,21,15,09,9.60
2011,04,21,15,10,9.60
2011,04,21,15,11,9.60
2011,04,21,15,12,9.60
2011,04,21,15,13,9.60
2011,04,21,15,14,9.60
2011,04,21,15,15,9.70
2011,04,21,15,16,9.60
2011,04,21,15,17,9.60
2011,04,21,15,18,9.60
2011,04,21,15,19,9.60
2011,04,21,15,20,9.60
2011,04,21,15,21,9.60
2011,04,21,15,22,9.60
2011,04,21,15,23,9.60
2011,04,21,15,24,9.60
2011,04,21,15,25,9.60
2011,04,21,15,26,9.60
2011,04,21,15,27,9.60
2011,04,21,15,28,9.70
2011,04,21,15,29,9.70
2011,04,21,15,30,9.70
2011,04,21,15,31,9.70
2011,04,21,15,32,9.70
2011,04,21,15,33,9.70
2011,04,21,15,34,9.60
2011,04,21,15,35,9.60
2011,04,21,15,36,9.60
2011,04,21,15,37,9.70
2011,04,21,15,38,9.70
2011,04,21,15,39,9.70
2011,04,21,15,40,9.80
2011,04,21,15,41,9.80
2011,04,21,15,42,9.80
2011,04,21,15,43,9.80
2011,04,21,15,44,9.80
2011,04,21,15,45,9.70
2011,04,21,15,46,9.70
2011,04,21,15,47,9.70
2011,04,21,15,48,9.70
2011,04,21,15,49,9.80
2011,04,21,15,50,9.90
2011,04,21,15,51,10.00
2011,04,21,15,52,10.10
2011,04,21,15,53,10.10
2011,04,21,15,54,10.00
2011,04,21,15,55,10.00
2011,04,21,15,56,10.10
2011,04,21,15,57,10.10
2011,04,21,15,58,10.10
2011,04,21,15,59,10.20
2011,04,21,16,00,10.10
2011,04,21,16,01,10.10
2011,04,21,16,02,10.10
2011,04,21,16,03,10.10
2011,04,21,16,04,10.10
2011,04,21,16,05,10.20
2011,04,21,16,06,10.20
2011,04,21,16,07,10.10
2011,04,21,16,08,10.10
2011,04,21,16,09,10.20
2011,04,21,16,10,10.20
2011,04,21,16,11,10.20
2011,04,21,16,12,10.30
2011,04,21,16,13,10.40
2011,04,21,16,14,10.40
2011,04,21,16,15,10.30
2011,04,21,16,16,10.30
2011,04,21,16,17,10.30
2011,04,21,16,18,10.40
2011,04,21,16,19,10.30
2011,04,21,16,20,10.20
2011,04,21,16,21,10.20
2011,04,21,16,22,10.20
2011,04,21,16,23,10.20
2011,04,21,16,24,10.10
2011,04,21,16,25,10.10
2011,04,21,16,26,10.10
2011,04,21,16,27,10.10
2011,04,21,16,28,10.10
2011,04,21,16,29,10.20
2011,04,21,16,30,10.20
2011,04,21,16,31,10.30
2011,04,21,16,32,10.30
2011,04,21,16,33,10.30
2011,04,21,16,34,10.30
2011,04,21,16,35,10.30
2011,04,21,16,36,10.30
2011,04,21,16,37,10.40
2011,04,21,16,38,10.50
2011,04,21,16,39,10.50
2011,04,21,16,40,10.60
2011,04,21,16,41,10.70
2011,04,21,16,42,10.80
2011,04,21,16,43,10.80
2011,04,21,16,44,10.70
2011,04,21,16,45,10.60
2011,04,21,16,46,10.50
2011,04,21,16,47,10.40
2011,04,21,16,48,10.40
2011,04,21,16,49,10.40
2011,04,21,16,50,10.40
2011,04,21,16,51,10.40
2011,04,21,16,52,10.50
2011,04,21,16,53,10.60
2011,04,21,16,54,10.70
2011,04,21,16,55,10.70
2011,04,21,16,56,10.70
2011,04,21,16,57,10.70
2011,04,21,16,58,10.70
2011,04,21,16,59,10.70
2011,04,21,17,00,10.80
2011,04,21,17,01,10.70
2011,04,21,17,02,10.70
2011,04,21,17,03,10.70
2011,04,21,17,04,10.70
2011,04,21,17,05,10.70
2011,04,21,17,06,10.60
2011,04,21,17,07,10.50
2011,04,21,17,08,10.50
2011,04,21,17,09,10.40
2011,04,21,17,10,10.40
2011,04,21,17,11,10.40
2011,04,21,17,12,10.40
2011,04,21,17,13,10.40
2011,04,21,17,14,10.30
2011,04,21,17,15,10.30
2011,04,21,17,16,10.30
2011,04,21,17,17,10.30
2011,04,21,17,18,10.40
2011,04,21,17,19,10.40
2011,04,21,17,20,10.50
2011,04,21,17,21,10.50
2011,04,21,17,22,10.60
2011,04,21,17,23,10.60
2011,04,21,17,24,10.70
2011,04,21,17,25,10.80
2011,04,21,17,26,10.80
2011,04,21,17,27,10.80
2011,04,21,17,28,10.80
2011,04,21,17,29,10.80
2011,04,21,17,30,10.80
2011,04,21,17,31,10.70
2011,04,21,17,32,10.60
2011,04,21,17,33,10.50
2011,04,21,17,34,10.40
2011,04,21,17,35,10.40
2011,04,21,17,36,10.30
2011,04,21,17,37,10.30
2011,04,21,17,38,10.40
2011,04,21,17,39,10.40
2011,04,21,17,40,10.30
2011,04,21,17,41,10.30
2011,04,21,17,42,10.40
2011,04,21,17,43,10.40
2011,04,21,17,44,10.50
2011,04,21,17,45,10.50
2011,04,21,17,46,10.60
2011,04,21,17,47,10.60
2011,04,21,17,48,10.60
2011,04,21,17,49,10.60
2011,04,21,17,50,10.60
2011,04,21,17,51,10.70
2011,04,21,17,52,10.70
2011,04,21,17,53,10.70
2011,04,21,17,54,10.70
2011,04,21,17,55,10.80
2011,04,21,17,56,10.80
2011,04,21,17,57,10.80
2011,04,21,17,58,10.90
2011,04,21,17,59,11.00
2011,04,21,18,00,11.00